Tracking 34403 objects as of 12-Jun-2026
HD Live streaming from Space Station
objects crossing your sky now

COSMOS 614

Track COSMOS 614 now!
10-day predictions
COSMOS 614 is classified as:


NORAD ID: 6965
Int'l Code: 1973-098A
Perigee: 748.7 km
Apogee: 781.6 km
Inclination: 74.1 °
Period: 100.0 minutes
Semi major axis: 7136 km
RCS: 2.1152 m2 (large)
Launch date: December 4, 1973
Source: Commonwealth of Independent States (former USSR) (CIS)
Launch site: PLESETSK MISSILE AND SPACE COMPLEX (PKMTR)
Your satellite tracking list
Your tracking list is empty




NASA's NSSDC Master Catalog

Two Line Element Set (TLE):
1 06965U 73098A   26163.07136251  .00000102  00000-0  40692-4 0  9994
2 06965  74.0572  44.7447 0023080 331.9812  28.0099 14.40155485753564
Source of the keplerian elements: AFSPC